Back to race calendar

SSAFA Saunter 10k, Holker Hall, Cumbria

1st September 2013

Results courtesy of Steve Ashcroft on behalf of Shoestring Results
(This is a sortable table - click column heading)
Filter (choose one only!)
Surname:
Cat: Club:
PosNumForenameSurnameCatClubTime
1140AndrewMeskimmonMV45Dewsbury RR00:39:46
2150SarahRidehalghFV35Accrington RR00:41:26
3169HarveyLordM 00:41:52
4144MarkBondMChorley AC00:44:16
5152JadeLawFGuildford and Goldalming00:45:48
6148NatalieBeadleF 00:46:21
7104GaryWoodhouseMV40Parkside Panthers00:47:44
8143StephenPerryMV55Lancaster & Morecambe AC00:47:45
9174JoeCottonMV40Parkside Panthers00:48:39
10149RebekahBeadleFV50luc00:50:46
11154JackRobertshawMV70Otley AC00:51:03
12172RonSmithMV60Bentham Beagales00:51:48
13128AlanCollierMV50 00:51:53
14131SusanWhittakerFV50 00:52:16
15159MarkLowtherMV50 00:52:26
16155DeanPallisterMV40Allithwaite RC00:52:30
17137DerekWoolleyMV60 00:52:39
18164SarahHunterFV35 00:53:26
19133RossWoodMV65 00:53:26
20122MaxineBaronFV45Parkside Panthers00:53:46
21161LisaThurlowFV40 00:54:50
22162JamesThurlowMV40 00:54:51
23158TristanCoulsonMParkside Panthers00:55:00
24167MelissaGreavesFParkside Panthers00:55:15
25127AnnStempFV45 00:55:52
26123CatherineGrisdaleFV50Parkside Panthers00:56:17
27112KarenOldhamFV45Parkside Panthers00:57:28
28118YvonneMorrellFV40 00:57:35
29160PipTathamFV35 00:58:00
30173JohnJacksonMV65 00:58:20
31141LindaRaynerFV55Dewsbury RR00:59:29
32163JenniBlackeney-BarrettFV50 00:59:38
33165BrettArkwrightM 00:59:57
34129AimeeGoodingsFParkside Panthers01:00:44
35101DavidBoltonMV45 01:01:17
36170StevenBlacowM 01:01:22
37171DawnHaddnoxF 01:01:22
38153KathleenRobertshawFV70Otley AC01:01:29
39147SharronCarruthersF 01:01:46
40134LorraineHayhurstFV40 01:04:10
41109AliceWhiteFParkside Panthers01:04:20
42114DarrenMcQuistanMV45Parkside Panthers01:04:30
43132KimWoodFV50 01:04:44
44130JoyCallisonFParkside Panthers01:04:56
45110JohnReedMV40Parkside Panthers01:05:27
46121SarahCumberbatchFV40Parkside Panthers01:05:32
47145ChrisHughesM 01:05:42
48113ClaireButterworthFParkside Panthers01:05:44
49166IainHunterM 01:05:44
50107ClaireAndrewsF 01:05:51
51156JohnMcKnightMV40Parkside Panthers01:06:15
52146DawnWilliamsF 01:06:57
53135LouiseStoreyFV45Parkside Panthers01:07:06
54157BarryChorleyMV40 01:07:37
55138EvelynElkingtonFV75Lancaster & Morecambe AC01:08:06
56139BernardElkingtonMV75Red Rose Road Runners01:08:06
57119JadeMarshallFParkside Panthers01:08:50
58142ClaireStansbieFV35 01:10:50
59108MichelleScott-McCulloughFV35Parkside Panthers01:12:10
60111GillReedFV40Parkside Panthers01:12:27
61105PaulaCottonFV35 01:14:19
62151SashaJonesFSJSports injury clinic01:14:55
63136MichelleShawFParkside Panthers01:15:13
64106AliBaxterFV35 01:15:13
65120SarahWilsonF 01:34:46
66168ClaireThomasFV35Parkside Panthers01:34:47
67126MargaretHadleyFV60Parkside Panthers01:34:55

Back to year index - Top of page